Location: Camps Bay
(33.9517°S, 18.3844°E)
Time: 09:42:04
(UTC+00:00)

Cosmos 1733 - Pass Details

Date: 18 January 2020
Orbit: 505 x 522 km, 82.5° (Epoch: 18 February)

Event Time Altitude Azimuth Distance (km) Brightness Sun altitude
Rises 03:02:58 0° 194° (SSW) 2,644 7.1 -9.9°
Reaches altitude 10° 03:05:10 10° 200° (SSW) 1,750 6.1 -9.5°
Maximum altitude 03:08:50 46° 273° (W) 703 3.5 -8.9°
Drops below altitude 10° 03:12:29 10° 346° (NNW) 1,728 5.4 -8.3°
Sets 03:14:38 0° 352° (N) 2,607 6.4 -7.9°
